Location: Azul
(36.7830°S, 59.8500°W)
Time: 00:53:52
(UTC-03:00)

ISS - Pass Details

Date: 26 June 2017
Orbit: 401 x 408 km, 51.6° (Epoch: 29 June)

Event Time Altitude Azimuth Distance (km) Brightness Sun altitude
Rises 20:25:48 0° 307° (NW) 2,331 0.9 -29.9°
Reaches altitude 10° 20:27:53 10° 304° (NW) 1,475 -0.3 -30.3°
Enters shadow 20:28:09 12° 303° (WNW) 1,367 -0.5 -30.4°
